Regional Weather Roundup
Issued by NWS

Home | Current Version | Previous Version | Text Only | Print | Product List | Glossary On
Versions: 1 2 3 4 5 6 7 8 9 10 11 12 13 14 15 16 17 18 19 20 21 22 23 24 25 26 27 28 29 30 31 32 33 34 35 36 37 38 39 40 41 42 43 44 45 46 47 48 49 50
000
ASUS46 KLOX 190712
RWRCA

SOUTHERN CALIFORNIA WEATHER ROUNDUP
NATIONAL WEATHER SERVICE OXNARD CALIFORNIA
1100 PM PST THU DEC 18 2014

NOTE: "FAIR" INDICATES FEW OR NO CLOUDS BELOW 12,000 FEET WITH NO
SIGNIFICANT WEATHER AND/OR OBSTRUCTIONS TO VISIBILITY.

  -  STATIONS PRECEEDED BY AN ASTERISK (*) ARE NOT NWS OR FAA
     STATIONS AND ARE NOT SUBJECT TO NWS AND FAA QUALITY CONTROL.

CAZ041-042-087-190800-
LA AND ORANGE COUNTY COASTAL AREAS


CITY           SKY/WX    TMP DP  RH WIND       PRES   REMARKS
L.A. DOWNTOWN  CLEAR     52  48  86 CALM      30.21S
L.A. AIRPORT   CLEAR     56  50  80 CALM      30.22S
LONG BEACH     CLEAR     53  50  89 CALM      30.22S

CITY           SKY/WX    TMP DP  RH WIND       PRES   REMARKS
AVALON           N/A     52 N/A N/A S2          N/A
FULLERTON      CLEAR     52  48  86 CALM      30.21S
*GETTY CENTER    N/A     52  45  76 N6          N/A
HAWTHORNE      CLEAR     55  50  83 CALM      30.22S
*LEO CARRILLO    N/A     52  47  84 N8          N/A
*LOS ALAMITOS  FAIR      51  49  96 NE3       30.22R
*REDONDO BEACH   N/A     51  47  86 CALM      30.21S
SANTA ANA      CLEAR     57  48  72 CALM      30.21S
STA MONICA APT CLEAR     53  46  77 N3        30.22S
*UCLA            N/A     52  45  76 N3        30.19S

$$

CAZ547-548-048-190800-
LA COUNTY VALLEYS AND INLAND EMPIRE


CITY           SKY/WX    TMP DP  RH WIND       PRES   REMARKS
BURBANK        CLEAR     50  45  83 CALM      30.21S
VAN NUYS       CLEAR     49  46  90 CALM      30.22R

CITY           SKY/WX    TMP DP  RH WIND       PRES   REMARKS
CORONA AIRPORT SUNNY     42  42 100 CALM      30.23S
*CHATSWORTH      N/A     48  44  87 CALM      30.22S
CHINO          CLEAR     49  47  93 NE3       30.24R
*CLAREMONT       N/A     45  41  86 N2          N/A
MARCH AFB      CLEAR     43  43 100 NW1       30.22R
*NORTHRIDGE      N/A     48  45  87 CALM        N/A
ONTARIO        PTCLDY    50  44  80 CALM      30.22R
*PASADENA        N/A     52  46  82 CALM        N/A
RIVERSIDE      CLEAR     49  44  83 CALM      30.22S
SAN BERNARDINO NOT AVBL
*SAN GABRIEL     N/A     50  45  81 CALM      30.20S
*SAN RAFAEL HI   N/A     51  44  78 CALM        N/A
*SAUGUS          N/A     49  43  80 NE2         N/A
*WHITEMAN AP   NOT AVBL
*WOODLAND HILL   N/A     46  43  87 SE2         N/A

$$

CAZ054-055-190800-
LA AND SAN BERNARDINO COUNTY MOUNTAINS


CITY           SKY/WX    TMP DP  RH WIND       PRES   REMARKS
*ACTON           N/A     36  33  90 N5          N/A  WCI  32
*BIG BEAR AIRP MOSUNNY   21  19  93 CALM      30.23S FOG
*BIG PINES       N/A     30  23  75 CALM        N/A
MT WILSON NWS    N/A     36  36 100 NE3         N/A
SANDBERG       CLEAR     41  32  70 E7        30.23S

$$

CAZ028-029-059-060-099-190800-
ANTELOPE VALLEY AND SURROUNDING AREAS


CITY           SKY/WX    TMP DP  RH WIND       PRES   REMARKS
LANCASTER      CLEAR     37  34  89 W5        30.25R WCI  33
PALMDALE       CLEAR     40  35  83 CALM      30.24S
*POPPY PARK      N/A     40  35  83 NW3         N/A

CITY           SKY/WX    TMP DP  RH WIND       PRES   REMARKS
29 PALMS       CLEAR     42  34  73 NW7       30.30S
BARSTOW/DAGGET CLEAR     41  35  79 CALM      30.24R
BISHOP         CLEAR     28  24  85 W6        30.22R WCI  22
CHINA LAKE     CLEAR     40  37  89 S3        30.24R
EDWARDS AFB    CLEAR     39  38  94 W5        30.23R
MOJAVE         FAIR      39  37  93 NW6       30.24S WCI  35
NEEDLES        CLEAR     49  41  74 W9        30.21S
VICTORVILLE      N/A     37  34  87 CALM      30.24R

$$

CAZ039-040-190800-
VENTURA AND SANTA BARBARA COUNTY COAST


CITY           SKY/WX    TMP DP  RH WIND       PRES   REMARKS
CAMARILLO      CLEAR     52  47  83 E6        30.22S
NWS OXNARD       N/A     49  46  88 CALM      30.22R
OXNARD AIRPORT CLEAR     53  47  79 NE8       30.22S
*POINT MUGU    PTCLDY    53  48  83 N5        30.23R
SBA APT/GOLETA CLEAR     52  50  93 CALM      30.22R
*SANTA BARBARA   N/A     54  48  78 CALM      30.30R
*VENTURA         N/A     50  47  88 CALM      30.26S

$$

CAZ044-045-190800-
VENTURA COUNTY VALLEYS


CITY           SKY/WX    TMP DP  RH WIND       PRES   REMARKS
*SIMI VALLEY     N/A     46  44  94 CALM      30.21F
*OJAI            N/A     43  40  92 CALM      30.20S
*FILLMORE        N/A     46  41  84 CALM      30.14S

$$

CAZ053-190800-
VENTURA COUNTY MOUNTAINS


CITY           SKY/WX    TMP DP  RH WIND       PRES   REMARKS
*LOCKWOOD VLY    N/A     28  28 100 CALM        N/A
*ROSE VALLEY     N/A     37  39 100 MISG        N/A

$$

CAZ034-035-036-190800-
CENTRAL COAST AND SANTA YNEZ VALLEY


CITY           SKY/WX    TMP DP  RH WIND       PRES   REMARKS
SAN LUIS OBISP CLOUDY    52  50  93 CALM      30.24R
SANTA MARIA    CLOUDY    54  49  83 CALM      30.24R

CITY           SKY/WX    TMP DP  RH WIND       PRES   REMARKS
*CAL POLY SLO    N/A     50  50 100 CALM        N/A
*LOMPOC        CLOUDY    54  46  76 CALM      30.24R
*PISMO BEACH     N/A     50  48  93 NE2       30.25R
*SANTA YNEZ    FAIR      50  46  87 CALM      30.23R

$$

CAZ037-038-051-190800-
SAN LUIS OBISPO COUNTY INTERIOR AND CUYAMA VALLEY


CITY           SKY/WX    TMP DP  RH WIND       PRES   REMARKS
*CUYAMA          N/A     43  41  91 CALM      30.22S
PASO ROBLES    MOCLDY    46  43  89 S3        30.23R

$$

CAZ032-033-061-190800-
SOUTHERN DESERTS


CITY           SKY/WX    TMP DP  RH WIND       PRES   REMARKS
BLYTHE         CLEAR     51  43  74 W6        30.20S
IMPERIAL       CLEAR     49  42  77 CALM      30.20S
PALM SPRINGS   CLEAR     54  39  57 CALM      30.23S
THERMAL        CLEAR     43  39  86 NW3       30.20S

$$

ELSEWHERE ACROSS THE WESTERN UNITED STATES AND MEXICO


CITY           SKY/WX    TMP DP  RH WIND       PRES   REMARKS
DENVER, CO     MOCLDY    29  25  85 W6        30.08S WCI  23
GRAND CANYON,  CLEAR     20  18  92 CALM      30.22S
HONOLULU, HI   MOCLDY    75  66  73 E10       30.12R
KAHULUI, MAUI  LGT RAIN  72  68  88 NE18      30.13R
LAKE TAHOE, CA PTCLDY    40  17  39 S14       30.13F WCI  32
LAS VEGAS, NV  PTCLDY    45  36  70 S8        30.18F
MAMMOTH LAKES, FAIR      19  18  93 CALM      30.21S
MEXICO CITY, M PTCLDY    59  45  58 SW8       30.32S
PHOENIX, AZ    CLEAR     51  43  74 E5        30.17F
PORTLAND, OR   LGT RAIN  46  45  96 E12       29.84R
RENO, NV       CLOUDY    38  31  76 SE6       30.12S WCI  33
SALT LAKE CITY PTCLDY    32  26  78 SE8       30.19F WCI  25
SAN DIEGO, CA  PTCLDY    58  49  72 CALM      30.22S
SAN FRANCISCO, CLOUDY    57  52  83 SE3       30.17R
SAN JOSE, CA   CLOUDY    54  49  83 SE7       30.19R
SEATTLE, WA    RAIN      48  46  93 SW7       29.78R FOG
TIJUANA, MEX   CLEAR     54  48  82 CALM      30.23F

$$

STATION/POSITION TIME  TEMP    WIND        PRES    VSBY  WAVE
                       AIR SEA DIR/SP/G                  HT/PER
                 (UTC) (F)     (DEG/KT/KT) (MB)    (MI)  (FT/S)
POINT ARGUELLO B NOT AVBL
WEST SANTA BARBA 0700   59 61  260/  2/  4 1022.7R         8/14
POINT CONCEPTION NOT AVBL
EAST SANTA BARBA NOT AVBL
SANTA MONICA BAY 0700   60 63   40/  4/  6 1023.5R         4/13


USA.gov is the U.S. government's official web portal to all federal, state and local government web resources and services.